Regional Weather Roundup
Issued by NWS

Home | Current Version | Previous Version | Graphics & Text | Print | Product List | Glossary On
Versions: 1 2 3 4 5 6 7 8 9 10 11 12 13 14 15 16 17 18 19 20 21 22 23 24 25 26 27 28 29 30 31 32 33 34 35 36 37 38 39 40 41 42 43 44 45 46 47 48 49 50
000
ASUS43 KIND 200009
RWRIN

WEATHER ROUNDUP FOR INDIANA
NATIONAL WEATHER SERVICE INDIANAPOLIS IN
800 PM EDT SUN OCT 19 2014

NOTE: "FAIR" INDICATES FEW OR NO CLOUDS BELOW 12,000 FEET WITH NO
SIGNIFICANT WEATHER AND/OR OBSTRUCTIONS TO VISIBILITY.

* - STATION DOES NOT REPORT WEATHER SUCH AS PRECIPITATION OR FOG.

+ - STATION NOT QUALITY CONTROLLED BY THE NATIONAL WEATHER SERVICE.
    USE DATA WITH CAUTION...ESPECIALLY DEWPOINT AND RELATIVE
    HUMIDITY OBSERVATIONS.

INZ001>003-010>013-019-020-200100-
NORTHWEST INDIANA

CITY           SKY/WX    TMP DP  RH WIND       PRES   REMARKS
GARY /AIRPORT/ CLOUDY    54  41  62 S9        30.01F
KNOX *+        CLOUDY    50  39  65 S6        30.02S
LA PORTE +     CLOUDY    52  41  66 S5        30.01F
6HR MIN TEMP:  52; 6HR MAX TEMP:  56;

MICHIGAN CITY+ CLOUDY    50  37  62 S6        30.01F
MONTICELLO +   MOCLDY    49  41  74 S3        30.04F
RENSSELAER +   MOCLDY    52  43  71 SW10      30.04F
VALPARAISO     MOCLDY    52  41  66 SW9       30.02F
6HR MIN TEMP:  51; 6HR MAX TEMP:  55;


$$

LMZ046-743>745-200100-
SOUTHERN LAKE MICHIGAN

STATION/POSITION TIME  TEMP WIND        PRES
                       AIR  DIR/SP/G
                 (UTC) (F)  (DEG/KT/KT) (MB)
MICHIGAN CITY    0000   53  170/  9/ 12   N/A

$$

INZ004-005-014>016-021>024-200100-
NORTH CENTRAL INDIANA

CITY           SKY/WX    TMP DP  RH WIND       PRES   REMARKS
GOSHEN         CLOUDY    50  39  66 S7        30.04S
6HR MIN TEMP:  50; 6HR MAX TEMP:  54;

LOGANSPORT +   MOCLDY    45  37  76 S7        30.06F
PERU/GRISSOM   MOCLDY    46  43  90 S7        30.05F
6HR MIN TEMP:  46; 6HR MAX TEMP:  56;

ROCHESTER +    MOCLDY    52  41  66 S5        30.05F
SOUTH BEND     CLOUDY    51  39  63 S8        30.02F
6HR MIN TEMP:  50; 6HR MAX TEMP:  55;

WARSAW +       CLOUDY    50  37  62 SW5       30.04F

$$

INZ006>009-017-018-025>027-200100-
NORTHEAST INDIANA

CITY           SKY/WX    TMP DP  RH WIND       PRES   REMARKS
ANGOLA *+      CLEAR     48  37  66 SW3       30.04S
AUBURN +       CLOUDY    46  37  71 CALM      30.05F
FORT WAYNE     MOCLDY    47  39  74 SW6       30.06F
6HR MIN TEMP:  47; 6HR MAX TEMP:  54;

HUNTINGTON +   MOCLDY    49  38  64 CALM      30.05S
6HR MIN TEMP:  49; 6HR MAX TEMP:  54;


$$

INZ028-029-035-036-043>045-051>053-200100-
WEST CENTRAL INDIANA

CITY           SKY/WX    TMP DP  RH WIND       PRES   REMARKS
GREENCASTLE +  PTCLDY    45  41  87 CALM      30.09S
LAFAYETTE      PTCLDY    50  40  68 S7        30.06F
6HR MIN TEMP:  50; 6HR MAX TEMP:  56;

TERRE HAUTE    CLEAR     46  41  82 S5        30.10F
6HR MIN TEMP:  46; 6HR MAX TEMP:  55;


$$

INZ030>032-037>040-046>048-054>057-064-065-200100-
CENTRAL INDIANA

CITY           SKY/WX    TMP DP  RH WIND       PRES   REMARKS
CP ATTERBURY + PTCLDY    46  39  76 S5        30.11S
COLUMBUS       PTCLDY    46  41  81 MISG      30.12R
FRANKFORT +    PTCLDY    47  40  77 S3        30.08F
INDIANAPOLIS   PTCLDY    50  39  66 S8        30.09S
6HR MIN TEMP:  50; 6HR MAX TEMP:  56;

-EAGLE CREEK   CLEAR     50  40  68 S3        30.08S
6HR MIN TEMP:  50; 6HR MAX TEMP:  57;

KOKOMO *+      PTCLDY    48  37  66 SW6       30.07F
MARION +       PTCLDY    47  37  67 S7        30.08S
MT COMFORT *+  CLEAR     48  34  57 S5        30.09S
SHELBYVILLE    CLEAR     50  40  68 S8        30.09S
6HR MIN TEMP:  50; 6HR MAX TEMP:  58;

ZIONSVILLE +   CLEAR     45  39  78 CALM      30.08S
6HR MIN TEMP:  45; 6HR MAX TEMP:  57;


$$

INZ033-034-041-042-049-050-058-059-200100-
EAST CENTRAL INDIANA

CITY           SKY/WX    TMP DP  RH WIND       PRES   REMARKS
MUNCIE         CLEAR     49  37  63 SW5       30.08F
6HR MIN TEMP:  49; 6HR MAX TEMP:  56;


$$

INZ060-061-067>069-081>083-085>088-200100-
SOUTHWEST INDIANA

CITY           SKY/WX    TMP DP  RH WIND       PRES   REMARKS
EVANSVILLE     MOCLDY    55  45  68 CALM      30.12S
6HR MIN TEMP:  54; 6HR MAX TEMP:  61;

HUNTINGBURG *+ PTCLDY    52  41  66 SW3       30.12S
6HR MIN TEMP:  52; 6HR MAX TEMP:  59;

WASHINGTON +   CLEAR     49  43  80 W5        30.11S
6HR MIN TEMP:  47; 6HR MAX TEMP:  57;


$$

INZ062-063-066-070>080-084-089>092-200100-
SOUTH CENTRAL AND SOUTHEAST INDIANA

CITY           SKY/WX    TMP DP  RH WIND       PRES   REMARKS
BLOOMINGTON    PTCLDY    47  42  83 CALM      30.10S
6HR MIN TEMP:  46; 6HR MAX TEMP:  57;


$$




USA.gov is the U.S. government's official web portal to all federal, state and local government web resources and services.